DHL1728 LUKK-LIRF

Flight info

Callsign DHL1728
Flight time N/A
Altitude 40000
Route POGAV DCT DIRER DCT PEVON DCT VELUG/N0401F190 Z924 MOPUV
Aircraft B752/M-SDE3FGHIM3RWXY/LB1

Departure

Time N/A
Airport Chişinău International Airport (LUKK)

Arrival

Time 2026-05-07 07:03
Airport Rome–Fiumicino Leonardo da Vinci International Airport (LIRF)
Time Latitude Longitude Altitude Speed Heading
2026-05-07 06:19 43.78267 17.66366 40070 ft 484 kts 256°
2026-05-07 06:20 43.76912 17.62465 40059 ft 482 kts 256°
2026-05-07 06:20 43.74107 17.54391 40064 ft 484 kts 255°
2026-05-07 06:21 43.71293 17.46319 40067 ft 481 kts 255°
2026-05-07 06:22 43.65921 17.30970 40066 ft 483 kts 255°
2026-05-07 06:22 43.61545 17.18530 40058 ft 484 kts 255°
2026-05-07 06:23 43.59390 17.11470 40047 ft 473 kts 262°
2026-05-07 06:23 43.57686 17.04605 40023 ft 473 kts 262°
2026-05-07 06:24 43.55530 16.96322 40014 ft 471 kts 262°
2026-05-07 06:24 43.53277 16.87808 40020 ft 471 kts 262°
2026-05-07 06:25 43.50949 16.79089 40021 ft 473 kts 262°
2026-05-07 06:25 43.48606 16.70375 40017 ft 470 kts 262°
2026-05-07 06:26 43.46249 16.61631 40018 ft 471 kts 262°
2026-05-07 06:26 43.43876 16.52867 40017 ft 469 kts 262°
2026-05-07 06:27 43.41533 16.44241 40020 ft 472 kts 262°
2026-05-07 06:27 43.39247 16.35869 40021 ft 468 kts 262°
2026-05-07 06:28 43.36933 16.27398 40024 ft 472 kts 261°
2026-05-07 06:28 43.34612 16.18958 40023 ft 470 kts 261°
2026-05-07 06:29 43.32304 16.10579 40025 ft 469 kts 261°
2026-05-07 06:29 43.29965 16.02114 40025 ft 472 kts 261°
2026-05-07 06:30 43.27616 15.93656 40022 ft 470 kts 261°
2026-05-07 06:30 43.25265 15.85211 40033 ft 470 kts 261°
2026-05-07 06:31 43.22910 15.76771 40055 ft 473 kts 261°
2026-05-07 06:31 43.20635 15.68771 40054 ft 472 kts 261°
2026-05-07 06:32 43.18384 15.60721 40052 ft 473 kts 261°
2026-05-07 06:32 43.15862 15.51866 40052 ft 473 kts 262°
2026-05-07 06:33 43.13493 15.43403 40044 ft 472 kts 261°
2026-05-07 06:33 43.11066 15.34819 40044 ft 475 kts 261°
2026-05-07 06:34 43.08849 15.27039 40043 ft 471 kts 260°
2026-05-07 06:34 43.06310 15.18770 40042 ft 478 kts 259°
2026-05-07 06:35 43.03838 15.10651 40032 ft 474 kts 259°
2026-05-07 06:35 43.01367 15.02252 40032 ft 470 kts 259°
2026-05-07 06:36 42.98950 14.93947 40029 ft 462 kts 259°
2026-05-07 06:36 42.96454 14.85352 40029 ft 460 kts 258°
2026-05-07 06:37 42.94008 14.76941 40031 ft 463 kts 258°
2026-05-07 06:37 42.91707 14.69057 40028 ft 465 kts 258°
2026-05-07 06:38 42.89322 14.60910 40015 ft 464 kts 258°
2026-05-07 06:38 42.87031 14.53106 40010 ft 465 kts 258°
2026-05-07 06:39 42.85946 14.49414 39659 ft 468 kts 258°
2026-05-07 06:39 42.84796 14.45532 39370 ft 458 kts 258°
2026-05-07 06:39 42.83745 14.41971 38794 ft 456 kts 258°
2026-05-07 06:39 42.82481 14.37689 38115 ft 453 kts 258°
2026-05-07 06:40 42.81382 14.33977 37528 ft 451 kts 258°
2026-05-07 06:40 42.80206 14.30007 36904 ft 449 kts 258°
2026-05-07 06:40 42.79038 14.26072 36289 ft 448 kts 258°
2026-05-07 06:40 42.78002 14.22584 35739 ft 448 kts 258°
2026-05-07 06:41 42.76902 14.18883 35158 ft 451 kts 258°
2026-05-07 06:41 42.75720 14.14913 34531 ft 452 kts 258°
2026-05-07 06:41 42.74596 14.11153 33929 ft 453 kts 258°
2026-05-07 06:41 42.73641 14.07954 33418 ft 456 kts 258°
2026-05-07 06:42 42.72230 14.03238 32658 ft 458 kts 257°
2026-05-07 06:42 42.70954 13.98985 31967 ft 459 kts 257°
2026-05-07 06:42 42.69717 13.94870 31295 ft 461 kts 257°
2026-05-07 06:42 42.68513 13.90865 30638 ft 463 kts 256°
2026-05-07 06:43 42.67438 13.87300 30047 ft 464 kts 256°
2026-05-07 06:43 42.66104 13.82880 29312 ft 465 kts 256°
2026-05-07 06:43 42.64820 13.78642 28599 ft 460 kts 256°
2026-05-07 06:43 42.63617 13.74678 27934 ft 455 kts 255°
2026-05-07 06:44 42.62344 13.70485 27232 ft 449 kts 255°
2026-05-07 06:44 42.61088 13.66351 26543 ft 444 kts 255°
2026-05-07 06:44 42.59854 13.62295 25870 ft 439 kts 255°
2026-05-07 06:44 42.58615 13.58229 25198 ft 435 kts 255°
2026-05-07 06:45 42.57428 13.54302 24553 ft 430 kts 256°
2026-05-07 06:45 42.56390 13.50499 23943 ft 426 kts 257°
2026-05-07 06:45 42.55373 13.46794 23350 ft 422 kts 256°
2026-05-07 06:45 42.54320 13.43125 22762 ft 419 kts 255°
2026-05-07 06:46 42.53285 13.39620 22197 ft 416 kts 254°
2026-05-07 06:46 42.52167 13.35905 21598 ft 413 kts 254°
2026-05-07 06:46 42.51041 13.32332 21018 ft 411 kts 251°
2026-05-07 06:46 42.49815 13.28720 20421 ft 408 kts 251°
2026-05-07 06:47 42.48644 13.25176 19835 ft 403 kts 251°
2026-05-07 06:47 42.47532 13.21714 19266 ft 399 kts 251°
2026-05-07 06:47 42.46437 13.18266 18701 ft 396 kts 251°
2026-05-07 06:47 42.45341 13.14868 18139 ft 391 kts 251°
2026-05-07 06:48 42.44223 13.11358 17560 ft 386 kts 251°
2026-05-07 06:48 42.43153 13.07960 17002 ft 381 kts 251°
2026-05-07 06:48 42.42119 13.04660 16462 ft 376 kts 250°
2026-05-07 06:48 42.41110 13.01431 15936 ft 373 kts 250°
2026-05-07 06:49 42.40176 12.98441 15449 ft 369 kts 250°
2026-05-07 06:49 42.39252 12.95483 14965 ft 366 kts 250°
2026-05-07 06:49 42.38171 12.92027 14398 ft 363 kts 250°
2026-05-07 06:49 42.37193 12.88904 13888 ft 361 kts 249°
2026-05-07 06:50 42.36230 12.85831 13383 ft 359 kts 249°
2026-05-07 06:50 42.35226 12.82629 12858 ft 356 kts 249°
2026-05-07 06:50 42.34246 12.79510 12349 ft 354 kts 249°
2026-05-07 06:50 42.33296 12.76489 11855 ft 351 kts 249°
2026-05-07 06:51 42.32351 12.73488 11366 ft 349 kts 249°
2026-05-07 06:51 42.31404 12.70481 10876 ft 348 kts 249°
2026-05-07 06:51 42.30463 12.67501 10390 ft 345 kts 249°
2026-05-07 06:51 42.29534 12.64563 10215 ft 332 kts 249°
2026-05-07 06:52 42.28646 12.61757 10204 ft 314 kts 249°
2026-05-07 06:52 42.27806 12.59106 10193 ft 297 kts 249°
2026-05-07 06:52 42.27017 12.56617 10137 ft 279 kts 249°
2026-05-07 06:52 42.26225 12.54115 9783 ft 283 kts 249°
2026-05-07 06:53 42.25446 12.51656 9408 ft 283 kts 249°
2026-05-07 06:53 42.24680 12.49244 9029 ft 283 kts 249°
2026-05-07 06:53 42.23902 12.46796 8637 ft 283 kts 249°
2026-05-07 06:53 42.23123 12.44347 8230 ft 284 kts 249°
2026-05-07 06:54 42.22352 12.41927 7799 ft 286 kts 249°
2026-05-07 06:54 42.21572 12.39481 7691 ft 275 kts 249°
2026-05-07 06:54 42.20595 12.37270 7252 ft 282 kts 229°
2026-05-07 06:54 42.18986 12.35751 6771 ft 288 kts 205°
2026-05-07 06:55 42.17168 12.34582 6278 ft 291 kts 214°
2026-05-07 06:55 42.15521 12.32962 5783 ft 294 kts 217°
2026-05-07 06:55 42.13866 12.31365 5341 ft 295 kts 215°
2026-05-07 06:55 42.12193 12.29814 5081 ft 289 kts 214°
2026-05-07 06:56 42.10561 12.28323 4808 ft 284 kts 214°
2026-05-07 06:56 42.08941 12.26856 4527 ft 281 kts 214°
2026-05-07 06:56 42.07319 12.25394 4249 ft 277 kts 214°
2026-05-07 06:56 42.05750 12.23984 3978 ft 274 kts 214°
2026-05-07 06:57 42.04186 12.22582 3714 ft 270 kts 214°
2026-05-07 06:57 42.02649 12.21205 3433 ft 262 kts 213°
2026-05-07 06:57 42.01185 12.19895 3137 ft 239 kts 213°
2026-05-07 06:57 41.99833 12.18685 2847 ft 222 kts 213°
2026-05-07 06:58 41.98584 12.17569 2606 ft 212 kts 213°
2026-05-07 06:58 41.97311 12.16629 2480 ft 203 kts 194°
2026-05-07 06:58 41.96001 12.16648 2512 ft 176 kts 166°
2026-05-07 06:58 41.95029 12.16990 2477 ft 156 kts 163°
2026-05-07 06:59 41.94133 12.17322 2483 ft 139 kts 162°
2026-05-07 06:59 41.93178 12.17690 2496 ft 139 kts 162°
2026-05-07 06:59 41.92276 12.18068 2343 ft 135 kts 159°
2026-05-07 06:59 41.91430 12.18452 2132 ft 128 kts 159°
2026-05-07 07:00 41.90585 12.18826 1950 ft 129 kts 160°
2026-05-07 07:00 41.89785 12.19173 1777 ft 128 kts 160°
2026-05-07 07:00 41.88915 12.19543 1590 ft 128 kts 160°
2026-05-07 07:00 41.88070 12.19900 1411 ft 127 kts 160°
2026-05-07 07:01 41.87247 12.20246 1233 ft 124 kts 160°
2026-05-07 07:01 41.86414 12.20596 1065 ft 128 kts 161°
2026-05-07 07:01 41.85582 12.20945 891 ft 126 kts 160°
2026-05-07 07:01 41.84768 12.21286 725 ft 127 kts 160°
2026-05-07 07:02 41.83925 12.21641 573 ft 127 kts 161°
2026-05-07 07:02 41.83083 12.22005 407 ft 127 kts 160°
2026-05-07 07:02 41.82243 12.22360 255 ft 127 kts 160°
2026-05-07 07:02 41.81414 12.22701 67 ft 121 kts 161°
2026-05-07 07:03 41.80656 12.23017 26 ft 102 kts 160°
2026-05-07 07:03 41.80170 12.23224 26 ft 60 kts 162°
2026-05-07 07:03 41.79789 12.23385 26 ft 54 kts 162°
2026-05-07 07:03 41.79540 12.23531 26 ft 34 kts 145°
2026-05-07 07:04 41.79390 12.23722 26 ft 8 kts 129°
2026-05-07 07:04 41.79370 12.23754 26 ft 5 kts 130°
2026-05-07 07:04 41.79337 12.23806 26 ft 8 kts 130°
2026-05-07 07:04 41.79314 12.23894 26 ft 11 kts 84°
2026-05-07 07:05 41.79340 12.23999 26 ft 4 kts 68°
2026-05-07 07:05 41.79342 12.24045 25 ft 5 kts 122°
2026-05-07 07:05 41.79300 12.24074 26 ft 10 kts 162°
2026-05-07 07:05 41.79228 12.24122 26 ft 7 kts 122°
2026-05-07 07:06 41.79234 12.24187 26 ft 7 kts 68°
2026-05-07 07:06 41.79249 12.24236 26 ft 3 kts 69°
2026-05-07 07:06 41.79252 12.24248 26 ft 0 kts 69°